DW0479 Weather Reports


time (UTC)temp
C
wind
direction
speed
KPH
gust
KPH
rain 1hr
cm
rain 24hr
cm
rain mn
cm
humidity
%
barometer
mb
20260831144414 30 29 1.6 8.0 0.00 0.00 0.00 76 1017.7
20260831143412 30 27 3.2 8.0 0.00 0.00 0.00 78 1017.7
20260831142412 30 24 1.6 6.4 0.00 0.00 0.00 82 1017.7
20260831141412 29 27 3.2 6.4 0.00 0.00 0.00 84 1017.7
20260831140413 28 351 3.2 6.4 0.00 0.00 0.00 84 1017.8
20260831135410 28 10 1.6 9.7 0.00 0.00 0.00 89 1017.8
20260831134410 27 15 1.6 6.4 0.00 0.00 0.00 91 1017.7
20260831133410 27 10 3.2 6.4 0.00 0.00 0.00 93 1017.6
20260831132816 26 19 1.6 6.4 0.00 0.00 0.00 94 1017.3
20260831132453 26 5 1.6 6.4 0.00 0.00 0.00 94 1017.5
20260831130408 26 337 1.6 8.0 0.00 0.00 0.00 95 1017.3
20260831125409 25 350 0.0 4.8 0.00 0.00 0.00 94 1017.3
20260831124407 25 350 0.0 4.8 0.00 0.00 0.00 94 1017.3
20260831123411 25 350 3.2 6.4 0.00 0.00 0.00 95 1017.3
20260831122402 25 348 1.6 4.8 0.00 0.00 0.00 95 1017.2
20260831121354 25 350 3.2 6.4 0.00 0.00 0.00 95 1017.1
20260831120348 25 341 0.0 0.0 0.00 0.00 0.00 95 1017.0
20260831115345 24 342 0.0 0.0 0.00 0.00 0.00 95 1016.8
20260831114346 24 342 0.0 0.0 0.00 0.00 0.00 95 1016.7
20260831113344 23 341 0.0 0.0 0.00 0.00 0.00 94 1016.6
20260831112341 23 341 0.0 0.0 0.00 0.00 0.00 95 1016.4
20260831111337 23 341 0.0 0.0 0.00 0.00 0.00 94 1016.4
20260831110333 23 342 0.0 0.0 0.00 0.00 0.00 94 1016.2
20260831105334 23 342 0.0 0.0 0.00 0.00 0.00 94 1015.9
20260831104336 23 342 0.0 0.0 0.00 0.00 0.00 95 1015.8
20260831103333 23 342 0.0 0.0 0.00 0.00 0.00 94 1015.9
20260831102333 23 342 0.0 0.0 0.00 0.00 0.00 94 1015.8
20260831101333 23 342 0.0 0.0 0.00 0.00 0.00 94 1015.7
20260831100814 23 342 0.0 0.0 0.00 0.00 0.00 94 1015.7
20260831095319 23 342 0.0 0.0 0.00 0.00 0.00 94 1015.6
20260831094320 23 342 0.0 0.0 0.00 0.00 0.00 94 1015.6
20260831093319 23 341 0.0 0.0 0.00 0.00 0.00 94 1015.6
20260831092322 23 342 0.0 0.0 0.00 0.00 0.00 94 1015.6
20260831091321 23 342 0.0 0.0 0.00 0.00 0.00 94 1015.6
20260831090317 23 342 0.0 4.8 0.00 0.00 0.00 94 1015.6
20260831085319 23 341 0.0 3.2 0.00 0.00 0.00 94 1015.7
20260831084318 23 342 0.0 0.0 0.00 0.00 0.00 94 1015.7
20260831083318 23 342 0.0 3.2 0.00 0.00 0.00 94 1015.7
20260831082315 23 341 0.0 0.0 0.00 0.00 0.00 94 1015.7
20260831081757 23 342 0.0 0.0 0.00 0.00 0.00 94 1015.8
20260831080753 23 342 0.0 0.0 0.00 0.00 0.00 94 1015.8
20260831075754 23 342 0.0 3.2 0.00 0.03 0.00 94 1015.9
20260831074316 23 341 0.0 0.0 0.00 0.03 0.00 94 1016.0
20260831073313 23 342 0.0 0.0 0.00 0.03 0.00 93 1016.2
20260831072311 23 342 1.6 3.2 0.00 0.03 0.00 94 1016.2
20260831071312 23 342 0.0 3.2 0.00 0.03 0.00 94 1016.2
20260831070309 23 341 0.0 0.0 0.00 0.03 0.00 94 1016.0
20260831065311 23 342 0.0 0.0 0.00 0.03 0.00 94 1016.1
20260831064312 23 342 0.0 0.0 0.00 0.03 0.00 94 1016.2
20260831063309 23 342 0.0 0.0 0.00 0.03 0.00 94 1016.3
20260831062752 23 342 0.0 1.6 0.00 0.03 0.00 94 1016.4
20260831061310 23 342 0.0 0.0 0.00 0.03 0.00 94 1016.3
20260831060309 23 341 0.0 0.0 0.00 0.03 0.00 93 1016.4
20260831055310 23 341 0.0 1.6 0.00 0.03 0.00 94 1016.5
20260831054311 23 342 0.0 0.0 0.00 0.03 0.00 93 1016.6
20260831053311 23 342 0.0 0.0 0.00 0.03 0.00 94 1016.8
20260831052308 23 342 0.0 0.0 0.00 0.03 0.00 94 1016.9
20260831051308 23 341 0.0 0.0 0.00 0.03 0.00 93 1017.0
20260831050334 23 341 0.0 0.0 0.00 0.03 0.00 93 1017.2
20260831050310 23 342 0.0 1.6 0.00 0.03 0.00 93 1017.0
20260831045730 24 342 0.0 1.6 0.00 0.03 0.00 93 1017.1
20260831043749 24 342 0.0 0.0 0.00 0.03 0.00 93 1017.1
20260831042306 24 342 0.0 0.0 0.00 0.03 0.00 93 1017.1
20260831041300 24 341 0.0 0.0 0.00 0.03 0.00 93 1017.2
20260831040741 24 342 0.0 0.0 0.00 0.03 0.00 93 1017.2
20260831035738 24 342 0.0 0.0 0.00 0.03 0.03 93 1017.2
20260831034257 24 342 0.0 0.0 0.00 0.03 0.03 93 1017.2
20260831033253 24 342 0.0 0.0 0.00 0.03 0.03 93 1017.4
20260831032255 24 342 0.0 0.0 0.00 0.03 0.03 93 1017.4
20260831031733 25 341 0.0 0.0 0.00 0.03 0.03 93 1017.3
20260831030255 25 342 0.0 0.0 0.00 0.03 0.03 93 1017.3
20260831025254 25 341 0.0 0.0 0.00 0.03 0.03 92 1017.2
20260831024255 25 342 0.0 0.0 0.00 0.03 0.03 92 1017.3
20260831023254 25 341 0.0 1.6 0.00 0.03 0.03 92 1017.3
20260831022253 25 342 0.0 0.0 0.00 0.03 0.03 92 1017.3
20260831021252 25 342 0.0 0.0 0.00 0.03 0.03 92 1017.3
20260831020250 25 341 0.0 0.0 0.00 0.03 0.03 92 1017.5
20260831015249 25 342 0.0 0.0 0.00 0.03 0.03 91 1017.4
20260831014245 25 342 0.0 0.0 0.00 0.03 0.03 91 1017.4
20260831013239 25 342 0.0 1.6 0.00 0.03 0.03 91 1017.4
20260831012237 25 342 0.0 0.0 0.00 0.03 0.03 90 1017.3
20260831011229 25 341 0.0 0.0 0.00 0.03 0.03 90 1017.4
20260831010717 25 342 0.0 0.0 0.00 0.03 0.03 91 1017.4
20260831005223 25 341 0.0 0.0 0.00 0.03 0.03 90 1017.3
20260831004222 26 341 0.0 0.0 0.00 0.03 0.03 90 1017.0
20260831003218 26 341 0.0 1.6 0.00 0.03 0.03 89 1016.8
20260831002214 26 341 0.0 4.8 0.00 0.03 0.03 88 1016.8
20260831001212 26 342 3.2 4.8 0.00 0.03 0.03 88 1016.8
20260831000211 26 341 1.6 4.8 0.00 0.03 0.03 87 1016.7
20260830235651 26 291 0.0 4.8 0.00 0.03 0.03 87 1016.5
20260830234207 26 292 1.6 4.8 0.00 0.03 0.03 87 1016.4
20260830233158 26 263 1.6 4.8 0.00 0.03 0.03 88 1016.5
20260830232157 27 263 0.0 1.6 0.00 0.03 0.03 87 1016.4
20260830231154 27 263 0.0 3.2 0.00 0.03 0.03 86 1016.4
20260830230139 27 262 0.0 1.6 0.00 0.03 0.03 84 1016.4
20260830225130 27 262 0.0 0.0 0.00 0.05 0.03 84 1016.4
20260830224125 27 262 0.0 1.6 0.00 0.05 0.03 84 1016.3
20260830223609 27 262 0.0 1.6 0.00 0.08 0.03 85 1016.2
20260830222108 27 262 0.0 3.2 0.00 0.10 0.03 84 1016.2
20260830221059 27 162 1.6 8.0 0.00 0.10 0.03 83 1016.2
20260830220053 27 162 1.6 8.0 0.00 0.13 0.03 83 1016.2
20260830215053 27 162 3.2 8.0 0.00 0.15 0.03 82 1016.2
20260830214048 27 158 3.2 11.3 0.00 0.15 0.03 82 1016.1
20260830213049 27 205 1.6 6.4 0.00 0.15 0.03 83 1016.2
20260830212049 27 162 1.6 9.7 0.00 0.15 0.03 82 1016.3
20260830211045 28 125 1.6 6.4 0.00 0.20 0.03 83 1016.4
20260830210044 27 117 3.2 6.4 0.00 1.52 0.03 82 1016.4
20260830205043 27 115 3.2 9.7 0.00 1.80 0.03 81 1016.5
20260830204516 27 102 4.8 12.9 0.00 1.80 0.03 81 1016.4
20260830203027 27 124 4.8 12.9 0.00 1.80 0.03 82 1016.4
20260830202510 27 100 6.4 14.5 0.00 1.80 0.03 81 1016.4
20260830201502 27 139 4.8 12.9 0.00 1.80 0.03 80 1016.4
20260830200025 28 140 3.2 11.3 0.00 1.80 0.03 79 1016.5
20260830195937 28 42 4.8 11.3 0.00 1.80 0.03 80 1016.4
20260830194448 28 90 8.0 16.1 0.00 1.80 0.03 78 1016.5
20260830193014 28 136 8.0 19.3 0.00 1.80 0.03 79 1016.4
20260830192449 28 97 8.0 17.7 0.00 1.80 0.03 78 1016.7
20260830191014 28 121 9.7 20.9 0.00 1.80 0.03 78 1016.8
20260830190013 28 158 11.3 22.5 0.00 1.80 0.03 76 1016.6
20260830185455 29 112 14.5 30.6 0.00 1.80 0.03 75 1016.9
20260830184014 32 148 11.3 29.0 0.00 1.80 0.03 66 1016.8
20260830183015 33 81 6.4 16.1 0.00 1.80 0.03 65 1016.6
20260830182506 33 101 8.0 16.1 0.00 1.80 0.03 62 1016.5
20260830181009 33 138 6.4 16.1 0.00 1.80 0.03 65 1016.7
20260830180004 33 138 6.4 17.7 0.00 1.80 0.03 62 1016.7
20260830174959 33 124 4.8 14.5 0.00 1.80 0.03 62 1016.8
20260830173948 33 122 4.8 12.9 0.00 1.80 0.03 62 1017.1
20260830172942 33 119 6.4 12.9 0.00 1.80 0.03 64 1017.2
20260830171943 33 42 4.8 16.1 0.00 1.80 0.03 67 1017.5
20260830170939 32 73 4.8 14.5 0.00 1.80 0.03 68 1017.6
20260830165938 33 71 6.4 17.7 0.00 1.80 0.03 69 1017.7
20260830164938 32 152 6.4 14.5 0.00 1.80 0.03 68 1017.9
20260830163934 32 97 4.8 12.9 0.00 1.80 0.03 70 1017.9
20260830162932 31 105 6.4 12.9 0.00 1.80 0.03 67 1017.9
20260830161933 31 119 4.8 14.5 0.00 1.80 0.03 73 1017.9
20260830160932 30 121 1.6 9.7 0.00 1.80 0.03 76 1017.9
20260830155928 30 171 3.2 9.7 0.00 1.80 0.03 74 1018.0
20260830154924 31 84 3.2 9.7 0.00 1.80 0.03 71 1018.1
20260830153923 31 94 4.8 12.9 0.00 1.80 0.03 70 1018.3
20260830153402 31 113 6.4 16.1 0.00 1.80 0.03 73 1018.2
20260830151921 30 146 4.8 14.5 0.00 1.80 0.03 76 1018.3
20260830150920 30 116 6.4 14.5 0.00 1.80 0.03 74 1018.3
20260830145915 30 99 4.8 14.5 0.00 1.80 0.03 79 1018.4
20260830145836 30 127 4.8 14.5 0.00 1.80 0.03 80 1018.3